Main page
METAR-TAF:

METAR-TAF

Airports :

Oil platform

K14-fa-1c, Netherlands

latitude: 53-16-10N, longitude: 3-37-40E, elevation: 28 m

Current weather observation

The report was made 28 minutes ago, at 07:25 UTC
Wind 16 kt from the West/Southwest
Temperature 18°C
Humidity 64%
Pressure 1002 hPa
Visibility 10 km or more
Few clouds at a height of 4200 ft

METAR: EHKV 180725Z AUTO 25016KT 9999 FEW042 18/11 Q1002 W///H///

Time: 09:53 (07:53 UTC)


TAF: missing

Weather observations and forecasts of more than 4000 airports (METAR and TAF reports).

The available stations are represented by yellow and red dots on the map.

Hover mouse over dot to see the name of the station.

Then click to see weather observations and forecasts.

To change the map : click on the green buttons with a black cross to zoom in, on the green button with a dash to zoom out, or on the green arrows for adjacent maps.


METAR-TAF: